Regional Weather Roundup
Issued by NWS Goodland, KS

Home | Current Version | Previous Version | Text Only | Print | Product List | Glossary Off
Versions: 1 2 3 4 5 6 7 8 9 10 11 12 13 14 15 16 17 18 19 20 21 22 23 24 25 26 27 28 29 30 31 32 33 34 35 36 37 38 39 40 41 42 43 44 45 46 47 48 49 50

000
ASUS43 KGLD 191608
RWRGLD

GOODLAND FORECAST AREA HOURLY WEATHER ROUNDUP
NATIONAL WEATHER SERVICE GOODLAND KS
1000 AM MDT SAT MAY 19 2018

...OFFICIAL OBSERVATIONS...

CITY           SKY/WX    TMP DP  RH WIND       PRES   REMARKS
GOODLAND KS    PTSUNNY   60  48  64 W22G31    29.94R
HILL CITY KS   CLOUDY    63  59  87 W6        29.93R
IMPERIAL NEB   LGT RAIN  49  48  97 NE24G37   29.96R FOG
MCCOOK NEB     CLOUDY    54  52  93 NE18      29.95R FOG
AKRON CO       RAIN      44  44 100 N21G33    30.02R FOG
BURLINGTON CO  PTSUNNY   59  47  64 W28G38    29.98R
LIMON CO       CLOUDY    53  45  74 NW24G36   30.05R
$$

...UNOFFICIAL OBSERVATIONS...

CITY           SKY/WX    TMP DP  RH WIND       PRES   REMARKS
NORTON KS      CLOUDY    61  55  82 N10G16    29.93
SHARON SPRINGS   N/A     61  52  72 MISG        N/A
KIT CARSON CO    N/A     58  47  66 MISG        N/A
YUMA CO        HVY RAIN  46  36  66 NE28G37   29.94R
$$




USA.gov is the U.S. government's official web portal to all federal, state and local government web resources and services.